EW8311 Weather Reports


time (UTC)temp
F
wind
direction
speed
knots
gust
knots
rain 1hr
in
rain 24hr
in
rain mn
in
humidity
%
barometer
mb
20210920061622 76 97 0.0 0.9 0.00 0.00 0.00 49 1005.6
20210920060242 78 113 0.0 0.9 0.00 0.00 0.00 46 1005.5
20210920054648 77 116 0.0 0.9 0.00 0.00 0.00 48 1005.4
20210920053118 76 101 0.0 0.9 0.00 0.00 0.00 48 1005.4
20210920051552 77 101 0.0 0.9 0.00 0.00 0.00 49 1005.4
20210920050131 78 101 0.0 1.7 0.00 0.00 0.00 48 1005.3
20210920044608 78 25 0.0 0.9 0.00 0.00 0.00 46 1005.4
20210920043108 78 5 0.0 0.0 0.00 0.00 0.00 45 1005.3
20210920041554 79 328 0.0 0.0 0.00 0.00 0.00 44 1005.2
20210920040109 81 328 0.0 0.9 0.00 0.00 0.00 40 1005.1
20210920034612 82 328 0.0 2.6 0.00 0.00 0.00 35 1004.9
20210920033109 83 335 0.9 2.6 0.00 0.00 0.00 34 1004.7
20210920031627 84 295 0.0 4.3 0.00 0.00 0.00 31 1004.5
20210920030131 85 317 2.6 6.1 0.00 0.00 0.00 30 1004.2
20210920024559 85 304 0.9 1.7 0.00 0.00 0.00 33 1004.0
20210920023142 87 333 0.9 6.1 0.00 0.00 0.00 32 1003.7
20210920021544 87 310 1.7 4.3 0.00 0.00 0.00 34 1003.5
20210920020106 87 314 1.7 8.7 0.00 0.00 0.00 34 1003.3
20210920014635 88 313 2.6 8.7 0.00 0.00 0.00 34 1003.0
20210920013115 88 311 3.5 8.7 0.00 0.00 0.00 34 1002.9
20210920011548 89 336 1.7 5.2 0.00 0.00 0.00 35 1002.8
20210920010109 90 346 1.7 7.0 0.00 0.00 0.00 34 1002.8
20210920004653 90 317 0.9 9.6 0.00 0.00 0.00 34 1002.7
20210920003054 90 318 5.2 13.0 0.00 0.00 0.00 33 1002.8
20210920001607 87 315 6.1 13.0 0.00 0.00 0.00 42 1002.7
20210920000034 89 344 6.1 13.0 0.00 0.00 0.00 41 1002.7
20210919234540 90 305 6.1 9.6 0.00 0.00 0.00 39 1002.6
20210919233102 92 321 2.6 7.8 0.00 0.00 0.00 37 1002.7
20210919231557 93 327 3.5 9.6 0.00 0.00 0.00 36 1002.7
20210919230034 94 320 2.6 9.6 0.00 0.00 0.00 35 1002.7
20210919224554 94 311 1.7 6.1 0.00 0.00 0.00 35 1002.7
20210919223043 94 345 2.6 11.3 0.00 0.00 0.00 37 1002.9
20210919221656 94 311 1.7 6.1 0.00 0.00 0.00 36 1002.9
20210919220033 94 251 0.0 3.5 0.00 0.00 0.00 35 1003.1
20210919214532 93 289 3.5 10.4 0.00 0.00 0.00 37 1003.4
20210919213034 93 284 0.9 5.2 0.00 0.00 0.00 39 1003.6
20210919211529 93 299 0.9 2.6 0.00 0.00 0.00 37 1004.0
20210919210024 92 269 2.6 6.1 0.00 0.00 0.00 38 1004.2
20210919204521 94 304 0.9 3.5 0.00 0.00 0.00 35 1004.2
20210919203022 93 304 1.7 6.1 0.00 0.00 0.00 36 1004.5
20210919201510 92 130 0.9 4.3 0.00 0.00 0.00 37 1004.7
20210919200046 92 259 1.7 4.3 0.00 0.00 0.00 37 1005.2
20210919194506 93 262 0.0 3.5 0.00 0.00 0.00 39 1005.2
20210919193004 91 270 0.9 4.3 0.00 0.00 0.00 41 1005.5
20210919190105 90 321 0.9 2.6 0.00 0.00 0.00 42 1005.9
20210919184625 90 315 0.9 2.6 0.00 0.00 0.00 42 1006.2
20210919183217 89 326 0.9 3.5 0.00 0.00 0.00 43 1006.4
20210919181714 88 320 0.0 2.6 0.00 0.00 0.00 43 1006.7
20210919180054 87 235 0.0 2.6 0.00 0.00 0.00 46 1006.8
20210919174643 86 262 0.0 1.7 0.00 0.00 0.00 48 1007.0
20210919173138 86 274 0.0 1.7 0.00 0.00 0.00 49 1007.2
20210919171632 85 124 0.0 1.7 0.00 0.00 0.00 52 1007.4
20210919170141 83 281 0.0 0.9 0.00 0.00 0.00 55 1007.5
20210919163137 83 208 0.0 1.7 0.00 0.00 0.00 58 1007.7
20210919161540 80 274 0.0 1.7 0.00 0.00 0.00 62 1007.7
20210919160130 80 318 0.0 0.9 0.00 0.00 0.00 64 1007.8
20210919154552 81 241 0.0 0.9 0.00 0.00 0.00 64 1007.6
20210919153103 80 190 0.0 0.9 0.00 0.00 0.00 64 1007.6
20210919151559 78 186 0.0 0.0 0.00 0.00 0.00 68 1007.6
20210919150033 78 183 0.0 0.0 0.00 0.00 0.00 68 1007.6
20210919144525 77 101 0.0 0.0 0.00 0.00 0.00 70 1007.6
20210919143041 76 101 0.0 0.0 0.00 0.00 0.00 72 1007.5
20210919141551 75 101 0.0 0.0 0.00 0.00 0.00 75 1007.6
20210919140015 72 101 0.0 0.0 0.00 0.00 0.00 81 1007.5
20210919134516 71 101 0.0 0.0 0.00 0.00 0.00 81 1007.3
20210919133041 70 101 0.0 0.0 0.00 0.00 0.00 83 1007.1
20210919131509 70 101 0.0 0.0 0.00 0.00 0.00 82 1006.9
20210919130009 70 101 0.0 0.0 0.00 0.00 0.00 82 1006.8
20210919124507 71 101 0.0 0.0 0.00 0.00 0.00 82 1006.8
20210919123013 70 101 0.0 0.0 0.00 0.00 0.00 82 1006.7
20210919121512 70 101 0.0 0.0 0.00 0.00 0.00 83 1006.5
20210919120005 70 101 0.0 0.0 0.00 0.00 0.00 83 1006.5
20210919114503 71 101 0.0 0.0 0.00 0.00 0.00 83 1006.5
20210919113106 71 101 0.0 0.0 0.00 0.00 0.00 82 1006.3
20210919111651 71 101 0.0 0.0 0.00 0.00 0.00 82 1006.2
20210919110130 71 101 0.0 0.0 0.00 0.00 0.00 81 1006.1
20210919104618 71 101 0.0 0.0 0.00 0.00 0.00 79 1006.1
20210919103134 72 101 0.0 0.0 0.00 0.00 0.00 80 1006.1
20210919101734 72 101 0.0 0.0 0.00 0.00 0.00 78 1006.2
20210919100054 72 101 0.0 0.0 0.00 0.00 0.00 79 1006.5
20210919094607 73 101 0.0 0.0 0.00 0.00 0.00 78 1006.6
20210919093229 73 101 0.0 0.0 0.00 0.00 0.00 76 1006.8
20210919091609 74 101 0.0 0.9 0.00 0.00 0.00 75 1006.7
20210919090117 74 101 0.0 0.0 0.00 0.00 0.00 75 1006.7
20210919084710 74 101 0.0 0.0 0.00 0.00 0.00 74 1006.8
20210919083104 74 101 0.0 0.9 0.00 0.00 0.00 74 1006.9
20210919081547 74 316 0.0 0.0 0.00 0.00 0.00 76 1007.0
20210919080113 74 316 0.0 0.0 0.00 0.00 0.00 75 1007.0
20210919074649 75 316 0.0 0.0 0.00 0.00 0.00 74 1007.1
20210919073101 75 316 0.0 0.0 0.00 0.00 0.00 73 1007.3
20210919071622 75 316 0.0 0.0 0.00 0.00 0.00 74 1007.4
20210919070028 75 316 0.0 0.0 0.00 0.00 0.00 73 1007.6
20210919064525 76 316 0.0 0.0 0.00 0.00 0.00 73 1007.6
20210919063031 76 316 0.0 0.0 0.00 0.00 0.00 71 1007.6